When you browse on this site, cookies collect data to enhance your experience and personalize the content and advertising you see.
Visit our Privacy Policy to learn more. By continuing to use the site, you agree to this use of cookies and data.
  • în România
  • Lista ţărilor
  • Pe 7 zile
  • Temperatura apei
  • Hartă satelitară
  • Meteo pe hartă
  • Widget-uri
  • user-avatar
    Intrare

    Meteo pe oră la Acerno

    Astăzi, 16 Iulie, Marţi

    Timp Temperatura Precipitaţii Vânt Presiune Umiditate
    00:00 +13°C° 1 mm 3 m/s 670 mmHg 86%
    01:00 +13°C° 1 mm 3 m/s 669 mmHg 91%
    02:00 +13°C° 1.4 mm 3 m/s 669 mmHg 91%
    03:00 +13°C° 1.4 mm 3 m/s 669 mmHg 91%
    04:00 +13°C° 1.4 mm 3 m/s 669 mmHg 91%
    05:00 +13°C° 0.8 mm 3 m/s 669 mmHg 90%
    06:00 +13°C° 0.8 mm 3 m/s 669 mmHg 89%
    07:00 +13°C° 0.8 mm 4 m/s 669 mmHg 88%
    08:00 +14°C° 0.5 mm 4 m/s 670 mmHg 84%
    09:00 +15°C° 0.5 mm 4 m/s 670 mmHg 79%
    10:00 +15°C° 0.5 mm 4 m/s 671 mmHg 75%
    11:00 +17°C° 0.2 mm 4 m/s 671 mmHg 70%
    12:00 +18°C° 0.2 mm 4 m/s 672 mmHg 66%
    13:00 +19°C° 0.2 mm 4 m/s 672 mmHg 61%
    14:00 +20°C° 0.3 mm 4 m/s 672 mmHg 60%
    15:00 +20°C° 0.3 mm 4 m/s 672 mmHg 60%
    16:00 +20°C° 0.3 mm 4 m/s 672 mmHg 59%
    17:00 +19°C° 0.2 mm 3 m/s 672 mmHg 63%
    18:00 +18°C° 0.2 mm 3 m/s 672 mmHg 67%
    19:00 +17°C° 0.2 mm 2 m/s 672 mmHg 71%
    20:00 +16°C° 0 mm 2 m/s 672 mmHg 74%
    21:00 +15°C° 0 mm 2 m/s 672 mmHg 77%
    22:00 +13°C° 0 mm 2 m/s 672 mmHg 80%
    23:00 +13°C° 0 mm 2 m/s 672 mmHg 81%

    Mâine, 17 Iulie, Miercuri

    Timp Temperatura Precipitaţii Vânt Presiune Umiditate
    00:00 +13°C° 0 mm 2 m/s 672 mmHg 82%
    01:00 +13°C° 0 mm 2 m/s 672 mmHg 82%
    02:00 +13°C° 0 mm 2 m/s 672 mmHg 80%
    03:00 +13°C° 0 mm 2 m/s 672 mmHg 78%
    04:00 +12°C° 0 mm 2 m/s 672 mmHg 76%
    05:00 +14°C° 0 mm 2 m/s 672 mmHg 71%
    06:00 +15°C° 0 mm 2 m/s 673 mmHg 66%
    07:00 +17°C° 0 mm 2 m/s 674 mmHg 61%
    08:00 +19°C° 0 mm 2 m/s 674 mmHg 53%
    09:00 +21°C° 0 mm 2 m/s 675 mmHg 45%
    10:00 +24°C° 0 mm 2 m/s 675 mmHg 37%
    11:00 +24°C° 0 mm 2 m/s 675 mmHg 34%
    12:00 +25°C° 0 mm 2 m/s 675 mmHg 31%
    13:00 +26°C° 0 mm 2 m/s 676 mmHg 28%
    14:00 +26°C° 0 mm 2 m/s 675 mmHg 29%
    15:00 +26°C° 0 mm 2 m/s 675 mmHg 31%
    16:00 +26°C° 0 mm 2 m/s 675 mmHg 32%
    17:00 +24°C° 0 mm 2 m/s 674 mmHg 41%
    18:00 +22°C° 0 mm 1 m/s 674 mmHg 50%
    19:00 +20°C° 0 mm 1 m/s 673 mmHg 59%
    20:00 +19°C° 0 mm 1 m/s 673 mmHg 61%
    21:00 +16°C° 0 mm 1 m/s 673 mmHg 63%
    22:00 +14°C° 0 mm 0 m/s 673 mmHg 65%
    23:00 +14°C° 0 mm 0 m/s 673 mmHg 65%

    Poimâine, 18 Iulie, Joi

    Timp Temperatura Precipitaţii Vânt Presiune Umiditate
    00:00 +14°C° 0 mm 0 m/s 672 mmHg 65%
    01:00 +15°C° 0 mm 1 m/s 672 mmHg 64%
    02:00 +14°C° 0 mm 1 m/s 672 mmHg 65%
    03:00 +14°C° 0 mm 1 m/s 672 mmHg 66%
    04:00 +14°C° 0 mm 1 m/s 672 mmHg 67%
    05:00 +15°C° 0 mm 1 m/s 672 mmHg 65%
    06:00 +18°C° 0 mm 1 m/s 672 mmHg 63%
    07:00 +19°C° 0 mm 1 m/s 673 mmHg 60%
    08:00 +21°C° 0 mm 1 m/s 673 mmHg 54%
    09:00 +21°C° 0 mm 2 m/s 674 mmHg 48%
    10:00 +24°C° 0 mm 2 m/s 675 mmHg 42%
    11:00 +25°C° 0 mm 2 m/s 675 mmHg 42%
    12:00 +25°C° 0 mm 3 m/s 675 mmHg 42%
    13:00 +26°C° 0 mm 3 m/s 675 mmHg 42%
    14:00 +25°C° 0.1 mm 3 m/s 675 mmHg 43%
    15:00 +25°C° 0.1 mm 3 m/s 675 mmHg 45%
    16:00 +24°C° 0.1 mm 3 m/s 674 mmHg 47%
    17:00 +23°C° 0 mm 2 m/s 674 mmHg 52%
    18:00 +20°C° 0 mm 2 m/s 674 mmHg 57%
    19:00 +20°C° 0 mm 1 m/s 673 mmHg 62%
    20:00 +19°C° 0 mm 1 m/s 673 mmHg 65%
    21:00 +16°C° 0 mm 1 m/s 674 mmHg 68%
    22:00 +15°C° 0 mm 1 m/s 674 mmHg 71%
    23:00 +15°C° 0 mm 1 m/s 673 mmHg 72%

    19 Iulie, Vineri

    Timp Temperatura Precipitaţii Vânt Presiune Umiditate
    00:00 +15°C° 0 mm 1 m/s 673 mmHg 73%
    01:00 +14°C° 0 mm 1 m/s 673 mmHg 74%
    02:00 +14°C° 0 mm 1 m/s 673 mmHg 76%
    03:00 +13°C° 0 mm 0 m/s 673 mmHg 77%
    04:00 +13°C° 0 mm 0 m/s 673 mmHg 79%
    05:00 +14°C° 0 mm 0 m/s 673 mmHg 72%
    06:00 +16°C° 0 mm 0 m/s 674 mmHg 66%
    07:00 +18°C° 0 mm 0 m/s 675 mmHg 59%
    08:00 +22°C° 0 mm 1 m/s 675 mmHg 51%
    09:00 +24°C° 0 mm 1 m/s 676 mmHg 43%
    10:00 +26°C° 0 mm 1 m/s 677 mmHg 36%
    11:00 +26°C° 0 mm 2 m/s 677 mmHg 35%
    12:00 +27°C° 0 mm 2 m/s 677 mmHg 34%
    13:00 +27°C° 0 mm 2 m/s 677 mmHg 34%
    14:00 +27°C° 0 mm 3 m/s 677 mmHg 36%
    15:00 +26°C° 0 mm 3 m/s 677 mmHg 38%
    16:00 +25°C° 0 mm 3 m/s 676 mmHg 39%
    17:00 +24°C° 0 mm 2 m/s 676 mmHg 46%
    18:00 +22°C° 0 mm 1 m/s 676 mmHg 52%
    19:00 +20°C° 0 mm 1 m/s 676 mmHg 58%
    20:00 +20°C° 0 mm 1 m/s 676 mmHg 60%
    21:00 +19°C° 0 mm 1 m/s 676 mmHg 61%
    22:00 +18°C° 0 mm 1 m/s 676 mmHg 63%
    23:00 +18°C° 0 mm 1 m/s 676 mmHg 63%

    20 Iulie, Sâmbătă

    Timp Temperatura Precipitaţii Vânt Presiune Umiditate
    00:00 +16°C° 0 mm 1 m/s 676 mmHg 63%
    01:00 +16°C° 0 mm 1 m/s 676 mmHg 64%
    02:00 +16°C° 0 mm 1 m/s 676 mmHg 64%
    03:00 +15°C° 0 mm 0 m/s 676 mmHg 65%
    04:00 +15°C° 0 mm 0 m/s 676 mmHg 65%
    05:00 +17°C° 0 mm 0 m/s 676 mmHg 61%
    06:00 +18°C° 0 mm 0 m/s 677 mmHg 56%
    07:00 +20°C° 0 mm 0 m/s 678 mmHg 51%
    08:00 +24°C° 0 mm 1 m/s 678 mmHg 46%
    09:00 +26°C° 0 mm 1 m/s 679 mmHg 40%
    10:00 +28°C° 0 mm 1 m/s 680 mmHg 34%
    11:00 +28°C° 0 mm 2 m/s 680 mmHg 35%
    12:00 +28°C° 0 mm 2 m/s 680 mmHg 35%
    13:00 +29°C° 0 mm 2 m/s 680 mmHg 36%
    14:00 +28°C° 0 mm 2 m/s 679 mmHg 38%
    15:00 +27°C° 0 mm 2 m/s 679 mmHg 40%
    16:00 +27°C° 0 mm 2 m/s 679 mmHg 42%
    17:00 +25°C° 0 mm 1 m/s 679 mmHg 47%
    18:00 +24°C° 0 mm 1 m/s 678 mmHg 52%
    19:00 +22°C° 0 mm 1 m/s 678 mmHg 58%
    20:00 +21°C° 0 mm 1 m/s 678 mmHg 58%
    21:00 +20°C° 0 mm 1 m/s 678 mmHg 59%
    22:00 +20°C° 0 mm 1 m/s 678 mmHg 60%
    23:00 +19°C° 0 mm 1 m/s 678 mmHg 60%

    21 Iulie, Duminică

    Timp Temperatura Precipitaţii Vânt Presiune Umiditate
    00:00 +19°C° 0 mm 1 m/s 677 mmHg 59%
    01:00 +16°C° 0 mm 0 m/s 677 mmHg 59%
    02:00 +16°C° 0 mm 0 m/s 677 mmHg 59%
    03:00 +16°C° 0 mm 0 m/s 677 mmHg 60%
    04:00 +16°C° 0 mm 0 m/s 676 mmHg 61%
    05:00 +18°C° 0 mm 0 m/s 677 mmHg 56%
    06:00 +19°C° 0 mm 0 m/s 678 mmHg 52%
    07:00 +21°C° 0 mm 0 m/s 678 mmHg 48%
    08:00 +25°C° 0 mm 1 m/s 679 mmHg 43%
    09:00 +27°C° 0 mm 1 m/s 679 mmHg 39%
    10:00 +29°C° 0 mm 1 m/s 680 mmHg 35%
    11:00 +29°C° 0 mm 2 m/s 680 mmHg 35%
    12:00 +29°C° 0 mm 2 m/s 680 mmHg 35%
    13:00 +29°C° 0 mm 3 m/s 680 mmHg 34%
    14:00 +29°C° 0 mm 3 m/s 680 mmHg 35%
    15:00 +29°C° 0 mm 2 m/s 679 mmHg 36%
    16:00 +28°C° 0 mm 2 m/s 679 mmHg 37%
    17:00 +26°C° 0 mm 2 m/s 679 mmHg 43%
    18:00 +25°C° 0 mm 1 m/s 678 mmHg 50%
    19:00 +23°C° 0 mm 1 m/s 678 mmHg 56%
    20:00 +22°C° 0 mm 1 m/s 678 mmHg 56%
    21:00 +21°C° 0 mm 1 m/s 678 mmHg 56%
    22:00 +20°C° 0 mm 1 m/s 678 mmHg 56%
    23:00 +20°C° 0 mm 1 m/s 678 mmHg 56%
    Arată mai mult